EN

Hourly Weather Wiktoria

Today, 29 September, Tuesday

Time Temperature Precipitation Wind Pressure Humidity
00:00 +6°C° 0 mm 1 mps 756 mmHg 84%
01:00 +6°C° 0 mm 1 mps 756 mmHg 87%
02:00 +5°C° 0 mm 1 mps 756 mmHg 88%
03:00 +5°C° 0 mm 1 mps 756 mmHg 89%
04:00 +5°C° 0 mm 1 mps 756 mmHg 90%
05:00 +5°C° 0 mm 1 mps 756 mmHg 91%
06:00 +5°C° 0 mm 2 mps 756 mmHg 91%
07:00 +5°C° 0 mm 2 mps 756 mmHg 91%
08:00 +8°C° 0 mm 2 mps 756 mmHg 85%
09:00 +10°C° 0 mm 3 mps 756 mmHg 79%
10:00 +13°C° 0 mm 4 mps 755 mmHg 74%
11:00 +14°C° 0 mm 4 mps 755 mmHg 71%
12:00 +15°C° 0 mm 4 mps 754 mmHg 68%
13:00 +17°C° 0 mm 4 mps 754 mmHg 65%
14:00 +17°C° 0 mm 4 mps 753 mmHg 67%
15:00 +17°C° 0 mm 4 mps 752 mmHg 69%
16:00 +17°C° 0 mm 4 mps 751 mmHg 70%
17:00 +15°C° 0 mm 4 mps 751 mmHg 76%
18:00 +13°C° 0 mm 3 mps 751 mmHg 82%
19:00 +12°C° 0 mm 3 mps 752 mmHg 87%
20:00 +12°C° 0 mm 3 mps 751 mmHg 85%
21:00 +12°C° 0 mm 4 mps 751 mmHg 83%
22:00 +12°C° 0 mm 4 mps 751 mmHg 81%
23:00 +12°C° 0 mm 4 mps 751 mmHg 79%

Tomorrow, 30 September, Wednesday

Time Temperature Precipitation Wind Pressure Humidity
00:00 +11°C° 0 mm 4 mps 750 mmHg 78%
01:00 +11°C° 0 mm 3 mps 750 mmHg 76%
02:00 +11°C° 0 mm 3 mps 749 mmHg 76%
03:00 +11°C° 0 mm 3 mps 749 mmHg 75%
04:00 +12°C° 0 mm 2 mps 748 mmHg 75%
05:00 +10°C° 0.1 mm 2 mps 748 mmHg 80%
06:00 +10°C° 0.1 mm 2 mps 748 mmHg 85%
07:00 +9°C° 0.1 mm 3 mps 748 mmHg 91%
08:00 +10°C° 0.1 mm 3 mps 748 mmHg 91%
09:00 +10°C° 0.1 mm 3 mps 748 mmHg 91%
10:00 +11°C° 0.1 mm 4 mps 748 mmHg 92%
11:00 +11°C° 0.2 mm 4 mps 747 mmHg 93%
12:00 +12°C° 0.2 mm 4 mps 747 mmHg 93%
13:00 +12°C° 0.2 mm 4 mps 746 mmHg 94%
14:00 +12°C° 0.1 mm 4 mps 746 mmHg 93%
15:00 +13°C° 0.1 mm 3 mps 745 mmHg 93%
16:00 +13°C° 0.1 mm 3 mps 745 mmHg 92%
17:00 +14°C° 0.3 mm 2 mps 745 mmHg 93%
18:00 +13°C° 0.3 mm 2 mps 745 mmHg 94%
19:00 +13°C° 0.3 mm 2 mps 746 mmHg 95%
20:00 +13°C° 0.1 mm 1 mps 746 mmHg 95%
21:00 +12°C° 0.1 mm 1 mps 747 mmHg 95%
22:00 +11°C° 0.1 mm 1 mps 747 mmHg 95%
23:00 +10°C° 0 mm 2 mps 747 mmHg 96%

Day after tomorrow, 1 October, Thursday

Time Temperature Precipitation Wind Pressure Humidity
00:00 +9°C° 0 mm 2 mps 748 mmHg 96%
01:00 +8°C° 0 mm 2 mps 748 mmHg 96%
02:00 +7°C° 0 mm 2 mps 748 mmHg 96%
03:00 +6°C° 0 mm 2 mps 749 mmHg 95%
04:00 +6°C° 0 mm 2 mps 749 mmHg 95%
05:00 +6°C° 0 mm 2 mps 750 mmHg 94%
06:00 +6°C° 0 mm 2 mps 750 mmHg 93%
07:00 +7°C° 0 mm 1 mps 751 mmHg 93%
08:00 +9°C° 0 mm 1 mps 751 mmHg 84%
09:00 +11°C° 0 mm 1 mps 751 mmHg 76%
10:00 +13°C° 0 mm 1 mps 751 mmHg 67%
11:00 +14°C° 0 mm 2 mps 751 mmHg 64%
12:00 +14°C° 0 mm 3 mps 751 mmHg 61%
13:00 +16°C° 0 mm 3 mps 751 mmHg 58%
14:00 +16°C° 0 mm 3 mps 751 mmHg 59%
15:00 +17°C° 0 mm 3 mps 751 mmHg 61%
16:00 +17°C° 0 mm 3 mps 751 mmHg 62%
17:00 +15°C° 0 mm 2 mps 751 mmHg 67%
18:00 +13°C° 0 mm 2 mps 751 mmHg 72%
19:00 +11°C° 0 mm 1 mps 752 mmHg 77%
20:00 +10°C° 0 mm 2 mps 752 mmHg 78%
21:00 +9°C° 0 mm 2 mps 753 mmHg 80%
22:00 +8°C° 0 mm 3 mps 753 mmHg 81%
23:00 +8°C° 0 mm 3 mps 753 mmHg 83%

2 October, Friday

Time Temperature Precipitation Wind Pressure Humidity
00:00 +8°C° 0 mm 3 mps 753 mmHg 84%
01:00 +7°C° 0 mm 3 mps 753 mmHg 86%
02:00 +7°C° 0 mm 3 mps 753 mmHg 87%
03:00 +5°C° 0 mm 3 mps 753 mmHg 88%
04:00 +5°C° 0 mm 3 mps 753 mmHg 88%
05:00 +7°C° 0 mm 3 mps 754 mmHg 86%
06:00 +6°C° 0 mm 4 mps 754 mmHg 84%
07:00 +7°C° 0 mm 4 mps 755 mmHg 82%
08:00 +10°C° 0 mm 4 mps 755 mmHg 79%
09:00 +12°C° 0 mm 5 mps 754 mmHg 76%
10:00 +15°C° 0 mm 5 mps 754 mmHg 73%
11:00 +17°C° 0 mm 5 mps 754 mmHg 71%
12:00 +19°C° 0 mm 5 mps 754 mmHg 70%
13:00 +21°C° 0 mm 5 mps 754 mmHg 69%
14:00 +22°C° 0 mm 5 mps 753 mmHg 70%
15:00 +23°C° 0 mm 4 mps 753 mmHg 71%
16:00 +25°C° 0 mm 4 mps 753 mmHg 73%
17:00 +22°C° 0 mm 4 mps 753 mmHg 77%
18:00 +20°C° 0 mm 5 mps 753 mmHg 82%
19:00 +17°C° 0 mm 5 mps 754 mmHg 87%
20:00 +16°C° 0 mm 5 mps 754 mmHg 87%
21:00 +16°C° 0 mm 5 mps 754 mmHg 87%
22:00 +15°C° 0 mm 5 mps 754 mmHg 86%
23:00 +14°C° 0 mm 5 mps 754 mmHg 86%

3 October, Saturday

Time Temperature Precipitation Wind Pressure Humidity
00:00 +14°C° 0 mm 5 mps 754 mmHg 86%
01:00 +13°C° 0 mm 5 mps 754 mmHg 86%
02:00 +13°C° 0 mm 5 mps 753 mmHg 86%
03:00 +12°C° 0 mm 5 mps 753 mmHg 86%
04:00 +12°C° 0 mm 5 mps 753 mmHg 86%
05:00 +12°C° 0 mm 5 mps 753 mmHg 85%
06:00 +12°C° 0 mm 5 mps 754 mmHg 85%
07:00 +12°C° 0 mm 5 mps 754 mmHg 84%
08:00 +14°C° 0 mm 5 mps 754 mmHg 80%
09:00 +16°C° 0 mm 5 mps 753 mmHg 75%
10:00 +20°C° 0 mm 6 mps 753 mmHg 71%
11:00 +21°C° 0 mm 6 mps 753 mmHg 68%
12:00 +23°C° 0 mm 6 mps 752 mmHg 64%
13:00 +26°C° 0 mm 6 mps 752 mmHg 61%
14:00 +26°C° 0 mm 6 mps 751 mmHg 64%
15:00 +26°C° 0 mm 5 mps 751 mmHg 67%
16:00 +27°C° 0 mm 5 mps 750 mmHg 71%
17:00 +25°C° 0 mm 4 mps 750 mmHg 72%
18:00 +22°C° 0 mm 4 mps 750 mmHg 73%
19:00 +20°C° 0 mm 4 mps 751 mmHg 74%
20:00 +19°C° 0 mm 4 mps 751 mmHg 76%
21:00 +18°C° 0 mm 3 mps 751 mmHg 79%
22:00 +17°C° 0 mm 3 mps 751 mmHg 82%
23:00 +16°C° 0 mm 3 mps 751 mmHg 85%

4 October, Sunday

Time Temperature Precipitation Wind Pressure Humidity
00:00 +16°C° 0 mm 3 mps 751 mmHg 88%
01:00 +14°C° 0 mm 3 mps 750 mmHg 91%
02:00 +14°C° 0 mm 3 mps 750 mmHg 90%
03:00 +14°C° 0 mm 4 mps 750 mmHg 88%
04:00 +14°C° 0 mm 4 mps 750 mmHg 87%
05:00 +14°C° 0 mm 4 mps 751 mmHg 87%
06:00 +15°C° 0 mm 5 mps 751 mmHg 88%
07:00 +15°C° 0 mm 5 mps 751 mmHg 88%
08:00 +17°C° 0 mm 5 mps 751 mmHg 82%
09:00 +21°C° 0 mm 6 mps 751 mmHg 75%
10:00 +23°C° 0 mm 6 mps 751 mmHg 69%
11:00 +24°C° 0 mm 6 mps 750 mmHg 68%
12:00 +27°C° 0 mm 5 mps 750 mmHg 67%
13:00 +28°C° 0 mm 5 mps 749 mmHg 67%
14:00 +28°C° 0.1 mm 5 mps 749 mmHg 67%
15:00 +27°C° 0.1 mm 5 mps 748 mmHg 68%
16:00 +27°C° 0.1 mm 5 mps 747 mmHg 68%
17:00 +23°C° 0.3 mm 4 mps 748 mmHg 74%
18:00 +21°C° 0.3 mm 2 mps 748 mmHg 80%
19:00 +20°C° 0.3 mm 1 mps 748 mmHg 86%
20:00 +19°C° 0 mm 1 mps 748 mmHg 87%
21:00 +19°C° 0 mm 1 mps 748 mmHg 87%
22:00 +19°C° 0 mm 1 mps 748 mmHg 88%
23:00 +19°C° 0.1 mm 1 mps 747 mmHg 86%
Show more

We Need Your Consent

Meteoprog and our Service Providers may store and access personal data such as cookies, device identifiers or other similar technologies on your device and process such data to personalise content and ads, as well as provide social media features and to analyse the traffic.

  • Store and/or access information on your device

    Cookies, device identifiers or other information can be stored or accessed on your device for the purposes indicated above.

  • Personalised ads and content, ad and content measurement, audience insights, and products development

    Ads and content can be personalised based on a profile. More data can be added to better personalise ads and content. Ad and content performance can be measured. Insights about the audience who saw the ads and content can be derived. Such data can be used to develop or improve user’s experience, systems and software.

By clicking ‘I Agree’ you will allow the use of indicated cookies, device identifiers, web beacons or other similar technologies. Your settings can be changed in the browser on your device.

For certain purposes, legitimate interests may be relied on, rather than consent. You can read more about this in our Privacy and Cookie Policy.